THORAD AGENA D DEB, 4611

Orbit data source: Space-Track

THORAD AGENA D DEB, 4611 is space debris in SSO originally from a launch on Wed, 08 Apr 1970 UTC launched from the Air Force Western Test Range (AFWTR). Debris objects in space refer to the collection of defunct objects orbiting the Earth. Examples of debris include non-operational satellites, rocket bodies, and fragments generated from explosions, collisions, or faulty payload assembly.

Loading next visibility...
Identifier
4611, 1970-025P
Orbit
SSO
Country
Flag of USUS
Related business
Manufacturer
Unknown
Mission
Spacecraft
Bus & Motor
Unknown
Mass
Unknown
Launch date (UTC)
1970-04-08 (56 years ago)
Launch vehicle
Unknown
Launch site
Air Force Western Test Range (AFWTR)
Object type
Payload
Rocket body
Debris
Shape & HBR
Unknown shape, 0.2 m
Radar Cross Section
Medium (>0.1 m² and <1 m²)

Expand to show TLE details & history
Last TLE update: 20 hours ago

TLE from 20 hours ago
0 THORAD AGENA D DEB
1 04611U 70025P   26207.59333573  .00000777  00000-0  49140-3 0  9993
2 04611  99.8746 214.7745 0123754   0.4749 359.6511 14.03833107861222
Epoch: 2026-07-26T14:14Z
TLE epoch observation values (Epoch: 2026-07-26T14:14:24.207Z)
Latitude
-0.00002°
Longitude
56.8846°
Altitude
793.561 km
Speed
7.503 km/s
True Right ascension
14h 19m 05s
True Declination
0° 00' 00"
Sunlit
Object was in daylight at epoch
Visualization orbit readout
Latitude
Unknown
Longitude
Unknown
Altitude
Unknown
Speed
Unknown
Apparent Right ascension
Unknown
Apparent Declination
Unknown
Sunlit
N/A
Visualization observer readout
Local Sidereal Time
00:01:59
Azimuth
Unknown
Elevation
Unknown
Doppler factor
Unknown
Orbital elements
Apogee altitude
967.586 km
Perigee altitude
787.996 km
Semi-major axis
7,255.928 km
Eccentricity
0.01238
Inclination
99.8746°
RAAN
214.7745°
Arg. of periapsis
0.4749°
True anomaly
359.64233°
Mean anomaly
359.6511°
Eccentric anomaly
359.64673°
Mean motion
3.51159 °/min
Orbital period
102.52 mins
BSTAR
0.0004914
Loading maneuver chart data...
Computing Atmospheric mass density...
Loading historical data...
Loading historical data...
Loading historical data...
Loading historical data...
Loading historical data...
Loading historical data...
Loading historical data...

Documentation

Showing up to 5 results
|